Flag for Israel Weather past 2 weeks in Ramat Gan, Israel

Now
66 °F

Passing clouds.


Feels Like: 66 °F
Forecast: 61 / 75 °F
Wind: 12 mph from Southwest

Location: Dov Airport

Current Time: Apr 2, 2015 at 1:09:33 PM

Latest Report: Apr 2, 2015 at 11:50 AM


Visibility: N/A

Pressure: 29.98 "Hg

Humidity: 68%

Dew point: 55 °F

Location of Ramat GanLocation

Historic Weather in Ramat Gan — Graph

°F

Ramat Gan temperature yesterday

Maximum temperature yesterday: 68 °F (at 2:50 PM)
Minimum temperature yesterday: 61 °F (at 6:50 AM)
Average temperature yesterday: 64 °F

Past Weeks' High & Low Weather Summary

 TemperatureHumidityPressure
High91 °F (Mar 27, 3:50 PM)94% (Mar 21, 4:01 PM)30.15 "Hg (Mar 21, 4:01 PM)
Low52 °F (Mar 23, 4:50 AM)16% (Mar 27, 3:50 PM)29.62 "Hg (Mar 28, 5:50 AM)
Average65 °F63%29.95 "Hg
* Reported Mar 18 10:50 AM — Apr 2 11:50 AM, Ramat Gan, Weather by CustomWeather, © 2015

Note: Actual official high and low records may vary slightly from our data, if they occured in-between our weather recording intervals... More about our weather records

Advertising

Ramat Gan weather history for previous 24 hours

 ConditionsComfort  
Time TempWeatherWind HumidityBarometerVisibility
11:50 AM
Thu, Apr 2
66 °FPassing clouds.12 mph68%29.98 "HgN/A
10:50 AM64 °FScattered clouds.9 mph73%29.98 "HgN/A
9:50 AM64 °FScattered clouds.6 mph73%29.98 "HgN/A
8:50 AM64 °FPassing clouds.7 mph73%29.98 "HgN/A
7:50 AM61 °FPassing clouds.5 mph83%29.98 "HgN/A
6:50 AM59 °FPassing clouds.6 mph88%29.98 "HgN/A
5:50 AM61 °FPassing clouds.5 mph83%29.98 "HgN/A
4:50 AM59 °FPassing clouds.5 mph94%29.98 "HgN/A
10:50 PM
Wed, Apr 1
63 °FPassing clouds.5 mph77%30.01 "HgN/A
9:50 PM63 °FPassing clouds.6 mph77%29.98 "HgN/A
8:50 PM64 °FPassing clouds.7 mph78%29.98 "HgN/A
7:50 PM64 °FPassing clouds.8 mph73%29.98 "HgN/A
6:50 PM64 °FBroken clouds.10 mph78%29.98 "HgN/A
5:50 PM66 °FPartly sunny.13 mph73%29.95 "HgN/A
4:50 PM68 °FScattered clouds.14 mph69%29.95 "HgN/A
3:50 PM66 °FScattered clouds.12 mph73%29.95 "HgN/A
2:50 PM68 °FScattered clouds.12 mph69%29.95 "HgN/A
1:50 PM66 °FScattered clouds.12 mph68%29.95 "HgN/A
Weather by CustomWeather, © 2015

See weather overviewHow to use our weather pages